Year,Month,Day,Hour,Minute,Value (Times are PST for temperature in C)
2015,07,10,00,00,17.30
2015,07,10,00,01,17.30
2015,07,10,00,02,17.20
2015,07,10,00,03,17.20
2015,07,10,00,04,17.20
2015,07,10,00,05,17.10
2015,07,10,00,06,17.10
2015,07,10,00,07,17.00
2015,07,10,00,08,17.00
2015,07,10,00,09,17.00
2015,07,10,00,10,16.90
2015,07,10,00,11,16.90
2015,07,10,00,12,16.90
2015,07,10,00,13,16.90
2015,07,10,00,14,16.80
2015,07,10,00,15,16.80
2015,07,10,00,16,16.80
2015,07,10,00,17,16.80
2015,07,10,00,18,16.80
2015,07,10,00,19,16.80
2015,07,10,00,20,16.80
2015,07,10,00,21,16.80
2015,07,10,00,22,16.80
2015,07,10,00,23,16.80
2015,07,10,00,24,16.80
2015,07,10,00,25,16.80
2015,07,10,00,26,16.80
2015,07,10,00,27,16.80
2015,07,10,00,28,16.80
2015,07,10,00,29,16.80
2015,07,10,00,30,16.80
2015,07,10,00,31,16.80
2015,07,10,00,32,16.80
2015,07,10,00,33,16.80
2015,07,10,00,34,16.80
2015,07,10,00,35,16.80
2015,07,10,00,36,16.80
2015,07,10,00,37,16.80
2015,07,10,00,38,16.80
2015,07,10,00,39,16.80
2015,07,10,00,40,16.80
2015,07,10,00,41,16.80
2015,07,10,00,42,16.80
2015,07,10,00,43,16.70
2015,07,10,00,44,16.70
2015,07,10,00,45,16.70
2015,07,10,00,46,16.70
2015,07,10,00,47,16.70
2015,07,10,00,48,16.70
2015,07,10,00,49,16.70
2015,07,10,00,50,16.70
2015,07,10,00,51,16.70
2015,07,10,00,52,16.70
2015,07,10,00,53,16.70
2015,07,10,00,54,16.70
2015,07,10,00,55,16.70
2015,07,10,00,56,16.60
2015,07,10,00,57,16.60
2015,07,10,00,58,16.60
2015,07,10,00,59,16.60
2015,07,10,01,00,16.60
2015,07,10,01,01,16.60
2015,07,10,01,02,16.60
2015,07,10,01,03,16.60
2015,07,10,01,04,16.60
2015,07,10,01,05,16.60
2015,07,10,01,06,16.60
2015,07,10,01,07,16.60
2015,07,10,01,08,16.60
2015,07,10,01,09,16.60
2015,07,10,01,10,16.60
2015,07,10,01,11,16.60
2015,07,10,01,12,16.60
2015,07,10,01,13,16.60
2015,07,10,01,14,16.60
2015,07,10,01,15,16.60
2015,07,10,01,16,16.60
2015,07,10,01,17,16.60
2015,07,10,01,18,16.60
2015,07,10,01,19,16.60
2015,07,10,01,20,16.60
2015,07,10,01,21,16.60
2015,07,10,01,22,16.60
2015,07,10,01,23,16.60
2015,07,10,01,24,16.60
2015,07,10,01,25,16.60
2015,07,10,01,26,16.60
2015,07,10,01,27,16.60
2015,07,10,01,28,16.70
2015,07,10,01,29,16.70
2015,07,10,01,30,16.70
2015,07,10,01,31,16.70
2015,07,10,01,32,16.70
2015,07,10,01,33,16.70
2015,07,10,01,34,16.70
2015,07,10,01,35,16.70
2015,07,10,01,36,16.70
2015,07,10,01,37,16.70
2015,07,10,01,38,16.70
2015,07,10,01,39,16.70
2015,07,10,01,40,16.80
2015,07,10,01,41,16.70
2015,07,10,01,42,16.70
2015,07,10,01,43,16.70
2015,07,10,01,44,16.70
2015,07,10,01,45,16.70
2015,07,10,01,46,16.70
2015,07,10,01,47,16.70
2015,07,10,01,48,16.70
2015,07,10,01,49,16.70
2015,07,10,01,50,16.70
2015,07,10,01,51,16.70
2015,07,10,01,52,16.70
2015,07,10,01,53,16.70
2015,07,10,01,54,16.70
2015,07,10,01,55,16.70
2015,07,10,01,56,16.70
2015,07,10,01,57,16.70
2015,07,10,01,58,16.70
2015,07,10,01,59,16.70
2015,07,10,02,00,16.70
2015,07,10,02,01,16.70
2015,07,10,02,02,16.70
2015,07,10,02,03,16.70
2015,07,10,02,04,16.70
2015,07,10,02,05,16.70
2015,07,10,02,06,16.70
2015,07,10,02,07,16.70
2015,07,10,02,08,16.70
2015,07,10,02,09,16.70
2015,07,10,02,10,16.70
2015,07,10,02,11,16.70
2015,07,10,02,12,16.70
2015,07,10,02,13,16.70
2015,07,10,02,14,16.60
2015,07,10,02,15,16.60
2015,07,10,02,16,16.60
2015,07,10,02,17,16.60
2015,07,10,02,18,16.60
2015,07,10,02,19,16.60
2015,07,10,02,20,16.60
2015,07,10,02,21,16.60
2015,07,10,02,22,16.60
2015,07,10,02,23,16.60
2015,07,10,02,24,16.60
2015,07,10,02,25,16.60
2015,07,10,02,26,16.60
2015,07,10,02,27,16.60
2015,07,10,02,28,16.60
2015,07,10,02,29,16.60
2015,07,10,02,30,16.60
2015,07,10,02,31,16.60
2015,07,10,02,32,16.60
2015,07,10,02,33,16.60
2015,07,10,02,34,16.60
2015,07,10,02,35,16.60
2015,07,10,02,36,16.60
2015,07,10,02,37,16.60
2015,07,10,02,38,16.60
2015,07,10,02,39,16.60
2015,07,10,02,40,16.60
2015,07,10,02,41,16.60
2015,07,10,02,42,16.60
2015,07,10,02,43,16.60
2015,07,10,02,44,16.60
2015,07,10,02,45,16.60
2015,07,10,02,46,16.60
2015,07,10,02,47,16.60
2015,07,10,02,48,16.50
2015,07,10,02,49,16.50
2015,07,10,02,50,16.50
2015,07,10,02,51,16.50
2015,07,10,02,52,16.50
2015,07,10,02,53,16.40
2015,07,10,02,54,16.40
2015,07,10,02,55,16.40
2015,07,10,02,56,16.40
2015,07,10,02,57,16.40
2015,07,10,02,58,16.40
2015,07,10,02,59,16.40
2015,07,10,03,00,16.40
2015,07,10,03,01,16.40
2015,07,10,03,02,16.40
2015,07,10,03,03,16.40
2015,07,10,03,04,16.40
2015,07,10,03,05,16.40
2015,07,10,03,06,16.40
2015,07,10,03,07,16.40
2015,07,10,03,08,16.40
2015,07,10,03,09,16.40
2015,07,10,03,10,16.40
2015,07,10,03,11,16.40
2015,07,10,03,12,16.40
2015,07,10,03,13,16.40
2015,07,10,03,14,16.40
2015,07,10,03,15,16.40
2015,07,10,03,16,16.40
2015,07,10,03,17,16.40
2015,07,10,03,18,16.40
2015,07,10,03,19,16.40
2015,07,10,03,20,16.40
2015,07,10,03,21,16.40
2015,07,10,03,22,16.40
2015,07,10,03,23,16.40
2015,07,10,03,24,16.40
2015,07,10,03,25,16.50
2015,07,10,03,26,16.40
2015,07,10,03,27,16.50
2015,07,10,03,28,16.50
2015,07,10,03,29,16.50
2015,07,10,03,30,16.50
2015,07,10,03,31,16.50
2015,07,10,03,32,16.50
2015,07,10,03,33,16.50
2015,07,10,03,34,16.50
2015,07,10,03,35,16.50
2015,07,10,03,36,16.50
2015,07,10,03,37,16.50
2015,07,10,03,38,16.50
2015,07,10,03,39,16.50
2015,07,10,03,40,16.50
2015,07,10,03,41,16.50
2015,07,10,03,42,16.50
2015,07,10,03,43,16.50
2015,07,10,03,44,16.50
2015,07,10,03,45,16.50
2015,07,10,03,46,16.50
2015,07,10,03,47,16.50
2015,07,10,03,48,16.50
2015,07,10,03,49,16.50
2015,07,10,03,50,16.50
2015,07,10,03,51,16.50
2015,07,10,03,52,16.50
2015,07,10,03,53,16.50
2015,07,10,03,54,16.50
2015,07,10,03,55,16.50
2015,07,10,03,56,16.40
2015,07,10,03,57,16.40
2015,07,10,03,58,16.40
2015,07,10,03,59,16.40
2015,07,10,04,00,16.40
2015,07,10,04,01,16.40
2015,07,10,04,02,16.40
2015,07,10,04,03,16.40
2015,07,10,04,04,16.40
2015,07,10,04,05,16.40
2015,07,10,04,06,16.40
2015,07,10,04,07,16.40
2015,07,10,04,08,16.40
2015,07,10,04,09,16.40
2015,07,10,04,10,16.40
2015,07,10,04,11,16.40
2015,07,10,04,12,16.40
2015,07,10,04,13,16.40
2015,07,10,04,14,16.40
2015,07,10,04,15,16.40
2015,07,10,04,16,16.40
2015,07,10,04,17,16.40
2015,07,10,04,18,16.40
2015,07,10,04,19,16.40
2015,07,10,04,20,16.40
2015,07,10,04,21,16.40
2015,07,10,04,22,16.40
2015,07,10,04,23,16.40
2015,07,10,04,24,16.40
2015,07,10,04,25,16.40
2015,07,10,04,26,16.40
2015,07,10,04,27,16.40
2015,07,10,04,28,16.40
2015,07,10,04,29,16.40
2015,07,10,04,30,16.30
2015,07,10,04,31,16.30
2015,07,10,04,32,16.40
2015,07,10,04,33,16.40
2015,07,10,04,34,16.30
2015,07,10,04,35,16.40
2015,07,10,04,36,16.40
2015,07,10,04,37,16.30
2015,07,10,04,38,16.30
2015,07,10,04,39,16.30
2015,07,10,04,40,16.30
2015,07,10,04,41,16.30
2015,07,10,04,42,16.30
2015,07,10,04,43,16.30
2015,07,10,04,44,16.30
2015,07,10,04,45,16.30
2015,07,10,04,46,16.30
2015,07,10,04,47,16.30
2015,07,10,04,48,16.30
2015,07,10,04,49,16.30
2015,07,10,04,50,16.30
2015,07,10,04,51,16.30
2015,07,10,04,52,16.30
2015,07,10,04,53,16.30
2015,07,10,04,54,16.30
2015,07,10,04,55,16.30
2015,07,10,04,56,16.30
2015,07,10,04,57,16.30
2015,07,10,04,58,16.30
2015,07,10,04,59,16.30
2015,07,10,05,00,16.30
2015,07,10,05,01,16.40
2015,07,10,05,02,16.40
2015,07,10,05,03,16.40
2015,07,10,05,04,16.40
2015,07,10,05,05,16.40
2015,07,10,05,06,16.40
2015,07,10,05,07,16.40
2015,07,10,05,08,16.40
2015,07,10,05,09,16.40
2015,07,10,05,10,16.30
2015,07,10,05,11,16.30
2015,07,10,05,12,16.30
2015,07,10,05,13,16.30
2015,07,10,05,14,16.30
2015,07,10,05,15,16.30
2015,07,10,05,16,16.30
2015,07,10,05,17,16.30
2015,07,10,05,18,16.30
2015,07,10,05,19,16.30
2015,07,10,05,20,16.30
2015,07,10,05,21,16.30
2015,07,10,05,22,16.30
2015,07,10,05,23,16.30
2015,07,10,05,24,16.30
2015,07,10,05,25,16.30
2015,07,10,05,26,16.30
2015,07,10,05,27,16.30
2015,07,10,05,28,16.30
2015,07,10,05,29,16.30
2015,07,10,05,30,16.30
2015,07,10,05,31,16.30
2015,07,10,05,32,16.30
2015,07,10,05,33,16.30
2015,07,10,05,34,16.30
2015,07,10,05,35,16.30
2015,07,10,05,36,16.30
2015,07,10,05,37,16.30
2015,07,10,05,38,16.30
2015,07,10,05,39,16.30
2015,07,10,05,40,16.30
2015,07,10,05,41,16.30
2015,07,10,05,42,16.30
2015,07,10,05,43,16.30
2015,07,10,05,44,16.30
2015,07,10,05,45,16.30
2015,07,10,05,46,16.30
2015,07,10,05,47,16.30
2015,07,10,05,48,16.30
2015,07,10,05,49,16.30
2015,07,10,05,50,16.30
2015,07,10,05,51,16.30
2015,07,10,05,52,16.30
2015,07,10,05,53,16.30
2015,07,10,05,54,16.30
2015,07,10,05,55,16.30
2015,07,10,05,56,16.30
2015,07,10,05,57,16.30
2015,07,10,05,58,16.30
2015,07,10,05,59,16.30
2015,07,10,06,00,16.30
2015,07,10,06,01,16.30
2015,07,10,06,02,16.30
2015,07,10,06,03,16.30
2015,07,10,06,04,16.30
2015,07,10,06,05,16.30
2015,07,10,06,06,16.30
2015,07,10,06,07,16.30
2015,07,10,06,08,16.30
2015,07,10,06,09,16.30
2015,07,10,06,10,16.40
2015,07,10,06,11,16.40
2015,07,10,06,12,16.40
2015,07,10,06,13,16.40
2015,07,10,06,14,16.40
2015,07,10,06,15,16.40
2015,07,10,06,16,16.40
2015,07,10,06,17,16.40
2015,07,10,06,18,16.40
2015,07,10,06,19,16.40
2015,07,10,06,20,16.40
2015,07,10,06,21,16.40
2015,07,10,06,22,16.40
2015,07,10,06,23,16.40
2015,07,10,06,24,16.40
2015,07,10,06,25,16.50
2015,07,10,06,26,16.50
2015,07,10,06,27,16.50
2015,07,10,06,28,16.50
2015,07,10,06,29,16.50
2015,07,10,06,30,16.60
2015,07,10,06,31,16.60
2015,07,10,06,32,16.60
2015,07,10,06,33,16.60
2015,07,10,06,34,16.60
2015,07,10,06,35,16.60
2015,07,10,06,36,16.60
2015,07,10,06,37,16.60
2015,07,10,06,38,16.60
2015,07,10,06,39,16.60
2015,07,10,06,40,16.60
2015,07,10,06,41,16.70
2015,07,10,06,42,16.70
2015,07,10,06,43,16.70
2015,07,10,06,44,16.70
2015,07,10,06,45,16.70
2015,07,10,06,46,16.70
2015,07,10,06,47,16.70
2015,07,10,06,48,16.70
2015,07,10,06,49,16.80
2015,07,10,06,50,16.80
2015,07,10,06,51,16.80
2015,07,10,06,52,16.80
2015,07,10,06,53,16.80
2015,07,10,06,54,16.80
2015,07,10,06,55,16.80
2015,07,10,06,56,16.80
2015,07,10,06,57,16.90
2015,07,10,06,58,16.90
2015,07,10,06,59,16.90
2015,07,10,07,00,17.00
2015,07,10,07,01,17.00
2015,07,10,07,02,17.00
2015,07,10,07,03,17.00
2015,07,10,07,04,17.10
2015,07,10,07,05,17.10
2015,07,10,07,06,17.10
2015,07,10,07,07,17.10
2015,07,10,07,08,17.20
2015,07,10,07,09,17.20
2015,07,10,07,10,17.20
2015,07,10,07,11,17.20
2015,07,10,07,12,17.20
2015,07,10,07,13,17.30
2015,07,10,07,14,17.30
2015,07,10,07,15,17.30
2015,07,10,07,16,17.30
2015,07,10,07,17,17.30
2015,07,10,07,18,17.30
2015,07,10,07,19,17.30
2015,07,10,07,20,17.40
2015,07,10,07,21,17.40
2015,07,10,07,22,17.40
2015,07,10,07,23,17.40
2015,07,10,07,24,17.40
2015,07,10,07,25,17.50
2015,07,10,07,26,17.50
2015,07,10,07,27,17.50
2015,07,10,07,28,17.60
2015,07,10,07,29,17.60
2015,07,10,07,30,17.60
2015,07,10,07,31,17.60
2015,07,10,07,32,17.70
2015,07,10,07,33,17.70
2015,07,10,07,34,17.70
2015,07,10,07,35,17.70
2015,07,10,07,36,17.80
2015,07,10,07,37,17.80
2015,07,10,07,38,17.80
2015,07,10,07,39,17.90
2015,07,10,07,40,17.90
2015,07,10,07,41,17.90
2015,07,10,07,42,17.90
2015,07,10,07,43,17.90
2015,07,10,07,44,17.90
2015,07,10,07,45,18.00
2015,07,10,07,46,18.00
2015,07,10,07,47,18.10
2015,07,10,07,48,18.10
2015,07,10,07,49,18.10
2015,07,10,07,50,18.10
2015,07,10,07,51,18.10
2015,07,10,07,52,18.10
2015,07,10,07,53,18.10
2015,07,10,07,54,18.10
2015,07,10,07,55,18.20
2015,07,10,07,56,18.20
2015,07,10,07,57,18.20
2015,07,10,07,58,18.30
2015,07,10,07,59,18.30
2015,07,10,08,00,18.30
2015,07,10,08,01,18.40
2015,07,10,08,02,18.40
2015,07,10,08,03,18.50
2015,07,10,08,04,18.50
2015,07,10,08,05,18.60
2015,07,10,08,06,18.60
2015,07,10,08,07,18.60
2015,07,10,08,08,18.70
2015,07,10,08,09,18.70
2015,07,10,08,10,18.70
2015,07,10,08,11,18.70
2015,07,10,08,12,18.70
2015,07,10,08,13,18.80
2015,07,10,08,14,18.80
2015,07,10,08,15,18.90
2015,07,10,08,16,18.90
2015,07,10,08,17,18.90
2015,07,10,08,18,19.00
2015,07,10,08,19,19.00
2015,07,10,08,20,19.00
2015,07,10,08,21,19.00
2015,07,10,08,22,19.10
2015,07,10,08,23,19.10
2015,07,10,08,24,19.10
2015,07,10,08,25,19.10
2015,07,10,08,26,19.20
2015,07,10,08,27,19.20
2015,07,10,08,28,19.20
2015,07,10,08,29,19.20
2015,07,10,08,30,19.30
2015,07,10,08,31,19.30
2015,07,10,08,32,19.30
2015,07,10,08,33,19.40
2015,07,10,08,34,19.40
2015,07,10,08,35,19.50
2015,07,10,08,36,19.50
2015,07,10,08,37,19.50
2015,07,10,08,38,19.60
2015,07,10,08,39,19.60
2015,07,10,08,40,19.60
2015,07,10,08,41,19.70
2015,07,10,08,42,19.70
2015,07,10,08,43,19.70
2015,07,10,08,44,19.70
2015,07,10,08,45,19.70
2015,07,10,08,46,19.70
2015,07,10,08,47,19.70
2015,07,10,08,48,19.70
2015,07,10,08,49,19.70
2015,07,10,08,50,19.70
2015,07,10,08,51,19.70
2015,07,10,08,52,19.70
2015,07,10,08,53,19.70
2015,07,10,08,54,19.70
2015,07,10,08,55,19.70
2015,07,10,08,56,19.60
2015,07,10,08,57,19.60
2015,07,10,08,58,19.70
2015,07,10,08,59,19.70
2015,07,10,09,00,19.70
2015,07,10,09,01,19.70
2015,07,10,09,02,19.70
2015,07,10,09,03,19.70
2015,07,10,09,04,19.80
2015,07,10,09,05,19.80
2015,07,10,09,06,19.80
2015,07,10,09,07,19.80
2015,07,10,09,08,19.80
2015,07,10,09,09,19.90
2015,07,10,09,10,19.90
2015,07,10,09,11,19.90
2015,07,10,09,12,19.90
2015,07,10,09,13,19.90
2015,07,10,09,14,19.90
2015,07,10,09,15,19.90
2015,07,10,09,16,20.00
2015,07,10,09,17,20.00
2015,07,10,09,18,20.00
2015,07,10,09,19,20.10
2015,07,10,09,20,20.10
2015,07,10,09,21,20.00
2015,07,10,09,22,20.00
2015,07,10,09,23,20.00
2015,07,10,09,24,20.00
2015,07,10,09,25,20.00
2015,07,10,09,26,20.00
2015,07,10,09,27,20.10
2015,07,10,09,28,20.10
2015,07,10,09,29,20.10
2015,07,10,09,30,20.20
2015,07,10,09,31,20.20
2015,07,10,09,32,20.20
2015,07,10,09,33,20.20
2015,07,10,09,34,20.20
2015,07,10,09,35,20.20
2015,07,10,09,36,20.20
2015,07,10,09,37,20.20
2015,07,10,09,38,20.10
2015,07,10,09,39,20.10
2015,07,10,09,40,20.10
2015,07,10,09,41,20.10
2015,07,10,09,42,20.20
2015,07,10,09,43,20.30
2015,07,10,09,44,20.30
2015,07,10,09,45,20.40
2015,07,10,09,46,20.50
2015,07,10,09,47,20.50
2015,07,10,09,48,20.50
2015,07,10,09,49,20.60
2015,07,10,09,50,20.60
2015,07,10,09,51,20.70
2015,07,10,09,52,20.70
2015,07,10,09,53,20.80
2015,07,10,09,54,20.80
2015,07,10,09,55,20.80
2015,07,10,09,56,20.80
2015,07,10,09,57,20.80
2015,07,10,09,58,20.80
2015,07,10,09,59,20.80
2015,07,10,10,00,20.90
2015,07,10,10,01,20.90
2015,07,10,10,02,20.90
2015,07,10,10,03,21.00
2015,07,10,10,04,21.00
2015,07,10,10,05,21.10
2015,07,10,10,06,21.10
2015,07,10,10,07,21.10
2015,07,10,10,08,21.00
2015,07,10,10,09,21.00
2015,07,10,10,10,21.10
2015,07,10,10,11,21.10
2015,07,10,10,12,21.10
2015,07,10,10,13,21.10
2015,07,10,10,14,21.10
2015,07,10,10,15,21.10
2015,07,10,10,16,21.10
2015,07,10,10,17,21.10
2015,07,10,10,18,21.20
2015,07,10,10,19,21.20
2015,07,10,10,20,21.20
2015,07,10,10,21,21.20
2015,07,10,10,22,21.10
2015,07,10,10,23,21.20
2015,07,10,10,24,21.20
2015,07,10,10,25,21.20
2015,07,10,10,26,21.20
2015,07,10,10,27,21.30
2015,07,10,10,28,21.30
2015,07,10,10,29,21.30
2015,07,10,10,30,21.30
2015,07,10,10,31,21.30
2015,07,10,10,32,21.30
2015,07,10,10,33,21.30
2015,07,10,10,34,21.30
2015,07,10,10,35,21.40
2015,07,10,10,36,21.50
2015,07,10,10,37,21.50
2015,07,10,10,38,21.50
2015,07,10,10,39,21.50
2015,07,10,10,40,21.50
2015,07,10,10,41,21.40
2015,07,10,10,42,21.40
2015,07,10,10,43,21.40
2015,07,10,10,44,21.40
2015,07,10,10,45,21.50
2015,07,10,10,46,21.50
2015,07,10,10,47,21.60
2015,07,10,10,48,21.70
2015,07,10,10,49,21.80
2015,07,10,10,50,21.80
2015,07,10,10,51,21.90
2015,07,10,10,52,21.90
2015,07,10,10,53,22.00
2015,07,10,10,54,22.00
2015,07,10,10,55,22.00
2015,07,10,10,56,22.10
2015,07,10,10,57,22.10
2015,07,10,10,58,22.20
2015,07,10,10,59,22.20
2015,07,10,11,00,22.20
2015,07,10,11,01,22.30
2015,07,10,11,02,22.30
2015,07,10,11,03,22.40
2015,07,10,11,04,22.30
2015,07,10,11,05,22.20
2015,07,10,11,06,22.20
2015,07,10,11,07,22.10
2015,07,10,11,08,22.00
2015,07,10,11,09,22.00
2015,07,10,11,10,22.00
2015,07,10,11,11,21.90
2015,07,10,11,12,21.90
2015,07,10,11,13,21.90
2015,07,10,11,14,21.90
2015,07,10,11,15,21.80
2015,07,10,11,16,21.80
2015,07,10,11,17,21.80
2015,07,10,11,18,21.80
2015,07,10,11,19,21.90
2015,07,10,11,20,21.90
2015,07,10,11,21,21.90
2015,07,10,11,22,21.90
2015,07,10,11,23,22.00
2015,07,10,11,24,22.00
2015,07,10,11,25,22.00
2015,07,10,11,26,22.10
2015,07,10,11,27,22.10
2015,07,10,11,28,22.10
2015,07,10,11,29,22.10
2015,07,10,11,30,22.10
2015,07,10,11,31,22.10
2015,07,10,11,32,22.10
2015,07,10,11,33,22.10
2015,07,10,11,34,22.20
2015,07,10,11,35,22.20
2015,07,10,11,36,22.30
2015,07,10,11,37,22.30
2015,07,10,11,38,22.30
2015,07,10,11,39,22.30
2015,07,10,11,40,22.20
2015,07,10,11,41,22.20
2015,07,10,11,42,22.20
2015,07,10,11,43,22.20
2015,07,10,11,44,22.20
2015,07,10,11,45,22.20
2015,07,10,11,46,22.20
2015,07,10,11,47,22.20
2015,07,10,11,48,22.10
2015,07,10,11,49,22.10
2015,07,10,11,50,22.10
2015,07,10,11,51,22.10
2015,07,10,11,52,22.20
2015,07,10,11,53,22.20
2015,07,10,11,54,22.20
2015,07,10,11,55,22.20
2015,07,10,11,56,22.20
2015,07,10,11,57,22.20
2015,07,10,11,58,22.30
2015,07,10,11,59,22.30
2015,07,10,12,00,22.40
2015,07,10,12,01,22.40
2015,07,10,12,02,22.30
2015,07,10,12,03,22.30
2015,07,10,12,04,22.30
2015,07,10,12,05,22.30
2015,07,10,12,06,22.30
2015,07,10,12,07,22.30
2015,07,10,12,08,22.30
2015,07,10,12,09,22.30
2015,07,10,12,10,22.40
2015,07,10,12,11,22.40
2015,07,10,12,12,22.40
2015,07,10,12,13,22.40
2015,07,10,12,14,22.30
2015,07,10,12,15,22.30
2015,07,10,12,16,22.30
2015,07,10,12,17,22.30
2015,07,10,12,18,22.30
2015,07,10,12,19,22.40
2015,07,10,12,20,22.50
2015,07,10,12,21,22.60
2015,07,10,12,22,22.60
2015,07,10,12,23,22.60
2015,07,10,12,24,22.70
2015,07,10,12,25,22.70
2015,07,10,12,26,22.70
2015,07,10,12,27,22.80
2015,07,10,12,28,22.80
2015,07,10,12,29,22.80
2015,07,10,12,30,22.70
2015,07,10,12,31,22.70
2015,07,10,12,32,22.70
2015,07,10,12,33,22.70
2015,07,10,12,34,22.70
2015,07,10,12,35,22.80
2015,07,10,12,36,22.80
2015,07,10,12,37,22.90
2015,07,10,12,38,22.90
2015,07,10,12,39,23.00
2015,07,10,12,40,23.00
2015,07,10,12,41,23.10
2015,07,10,12,42,23.20
2015,07,10,12,43,23.30
2015,07,10,12,44,23.40
2015,07,10,12,45,23.50
2015,07,10,12,46,23.70
2015,07,10,12,47,23.80
2015,07,10,12,48,23.90
2015,07,10,12,49,24.00
2015,07,10,12,50,24.10
2015,07,10,12,51,24.00
2015,07,10,12,52,24.00
2015,07,10,12,53,24.00
2015,07,10,12,54,24.00
2015,07,10,12,55,23.90
2015,07,10,12,56,23.90
2015,07,10,12,57,24.00
2015,07,10,12,58,24.00
2015,07,10,12,59,24.10
2015,07,10,13,00,24.10
2015,07,10,13,01,24.20
2015,07,10,13,02,24.20
2015,07,10,13,03,24.20
2015,07,10,13,04,24.10
2015,07,10,13,05,24.10
2015,07,10,13,06,24.10
2015,07,10,13,07,24.00
2015,07,10,13,08,23.80
2015,07,10,13,09,23.80
2015,07,10,13,10,23.70
2015,07,10,13,11,23.70
2015,07,10,13,12,23.60
2015,07,10,13,13,23.60
2015,07,10,13,14,23.60
2015,07,10,13,15,23.60
2015,07,10,13,16,23.70
2015,07,10,13,17,23.80
2015,07,10,13,18,23.90
2015,07,10,13,19,23.90
2015,07,10,13,20,23.90
2015,07,10,13,21,24.00
2015,07,10,13,22,24.00
2015,07,10,13,23,24.10
2015,07,10,13,24,24.10
2015,07,10,13,25,24.10
2015,07,10,13,26,24.10
2015,07,10,13,27,24.10
2015,07,10,13,28,24.10
2015,07,10,13,29,24.10
2015,07,10,13,30,24.10
2015,07,10,13,31,24.00
2015,07,10,13,32,24.00
2015,07,10,13,33,24.00
2015,07,10,13,34,24.10
2015,07,10,13,35,24.10
2015,07,10,13,36,24.20
2015,07,10,13,37,24.30
2015,07,10,13,38,24.30
2015,07,10,13,39,24.40
2015,07,10,13,40,24.50
2015,07,10,13,41,24.60
2015,07,10,13,42,24.60
2015,07,10,13,43,24.60
2015,07,10,13,44,24.60
2015,07,10,13,45,24.60
2015,07,10,13,46,24.60
2015,07,10,13,47,24.60
2015,07,10,13,48,24.50
2015,07,10,13,49,24.50
2015,07,10,13,50,24.30
2015,07,10,13,51,24.20
2015,07,10,13,52,24.20
2015,07,10,13,53,24.20
2015,07,10,13,54,24.10
2015,07,10,13,55,24.10
2015,07,10,13,56,24.00
2015,07,10,13,57,24.00
2015,07,10,13,58,23.90
2015,07,10,13,59,23.80
2015,07,10,14,00,23.70
2015,07,10,14,01,23.70
2015,07,10,14,02,23.70
2015,07,10,14,03,23.70
2015,07,10,14,04,23.70
2015,07,10,14,05,23.70
2015,07,10,14,06,23.70
2015,07,10,14,07,23.70
2015,07,10,14,08,23.60
2015,07,10,14,09,23.60
2015,07,10,14,10,23.70
2015,07,10,14,11,23.70
2015,07,10,14,12,23.80
2015,07,10,14,13,23.70
2015,07,10,14,14,23.70
2015,07,10,14,15,23.80
2015,07,10,14,16,23.80
2015,07,10,14,17,23.80
2015,07,10,14,18,23.70
2015,07,10,14,19,23.60
2015,07,10,14,20,23.50
2015,07,10,14,21,23.50
2015,07,10,14,22,23.50
2015,07,10,14,23,23.50
2015,07,10,14,24,23.60
2015,07,10,14,25,23.60
2015,07,10,14,26,23.50
2015,07,10,14,27,23.40
2015,07,10,14,28,23.30
2015,07,10,14,29,23.20
2015,07,10,14,30,23.10
2015,07,10,14,31,23.10
2015,07,10,14,32,23.10
2015,07,10,14,33,23.10
2015,07,10,14,34,23.20
2015,07,10,14,35,23.20
2015,07,10,14,36,23.30
2015,07,10,14,37,23.40
2015,07,10,14,38,23.50
2015,07,10,14,39,23.50
2015,07,10,14,40,23.60
2015,07,10,14,41,23.60
2015,07,10,14,42,23.60
2015,07,10,14,43,23.50
2015,07,10,14,44,23.50
2015,07,10,14,45,23.50
2015,07,10,14,46,23.40
2015,07,10,14,47,23.40
2015,07,10,14,48,23.50
2015,07,10,14,49,23.50
2015,07,10,14,50,23.50
2015,07,10,14,51,23.50
2015,07,10,14,52,23.40
2015,07,10,14,53,23.30
2015,07,10,14,54,23.30
2015,07,10,14,55,23.30
2015,07,10,14,56,23.40
2015,07,10,14,57,23.50
2015,07,10,14,58,23.50
2015,07,10,14,59,23.60
2015,07,10,15,00,23.60
2015,07,10,15,01,23.60
2015,07,10,15,02,23.60
2015,07,10,15,03,23.60
2015,07,10,15,04,23.50
2015,07,10,15,05,23.50
2015,07,10,15,06,23.50
2015,07,10,15,07,23.60
2015,07,10,15,08,23.60
2015,07,10,15,09,23.50
2015,07,10,15,10,23.50
2015,07,10,15,11,23.50
2015,07,10,15,12,23.50
2015,07,10,15,13,23.60
2015,07,10,15,14,23.60
2015,07,10,15,15,23.60
2015,07,10,15,16,23.50
2015,07,10,15,17,23.50
2015,07,10,15,18,23.40
2015,07,10,15,19,23.40
2015,07,10,15,20,23.30
2015,07,10,15,21,23.30
2015,07,10,15,22,23.20
2015,07,10,15,23,23.20
2015,07,10,15,24,23.20
2015,07,10,15,25,23.20
2015,07,10,15,26,23.20
2015,07,10,15,27,23.20
2015,07,10,15,28,23.30
2015,07,10,15,29,23.30
2015,07,10,15,30,23.30
2015,07,10,15,31,23.20
2015,07,10,15,32,23.10
2015,07,10,15,33,23.00
2015,07,10,15,34,23.00
2015,07,10,15,35,22.90
2015,07,10,15,36,22.90
2015,07,10,15,37,23.00
2015,07,10,15,38,23.00
2015,07,10,15,39,23.10
2015,07,10,15,40,23.20
2015,07,10,15,41,23.30
2015,07,10,15,42,23.30
2015,07,10,15,43,23.40
2015,07,10,15,44,23.40
2015,07,10,15,45,23.30
2015,07,10,15,46,23.30
2015,07,10,15,47,23.30
2015,07,10,15,48,23.30
2015,07,10,15,49,23.30
2015,07,10,15,50,23.30
2015,07,10,15,51,23.30
2015,07,10,15,52,23.30
2015,07,10,15,53,23.30
2015,07,10,15,54,23.20
2015,07,10,15,55,23.20
2015,07,10,15,56,23.20
2015,07,10,15,57,23.10
2015,07,10,15,58,23.10
2015,07,10,15,59,23.10
2015,07,10,16,00,23.10
2015,07,10,16,01,23.20
2015,07,10,16,02,23.30
2015,07,10,16,03,23.30
2015,07,10,16,04,23.30
2015,07,10,16,05,23.30
2015,07,10,16,06,23.30
2015,07,10,16,07,23.40
2015,07,10,16,08,23.50
2015,07,10,16,09,23.40
2015,07,10,16,10,23.40
2015,07,10,16,11,23.40
2015,07,10,16,12,23.20
2015,07,10,16,13,23.20
2015,07,10,16,14,23.10
2015,07,10,16,15,23.10
2015,07,10,16,16,23.00
2015,07,10,16,17,23.10
2015,07,10,16,18,23.10
2015,07,10,16,19,23.10
2015,07,10,16,20,23.10
2015,07,10,16,21,23.10
2015,07,10,16,22,23.10
2015,07,10,16,23,23.10
2015,07,10,16,24,23.20
2015,07,10,16,25,23.20
2015,07,10,16,26,23.20
2015,07,10,16,27,23.20
2015,07,10,16,28,23.20
2015,07,10,16,29,23.30
2015,07,10,16,30,23.30
2015,07,10,16,31,23.30
2015,07,10,16,32,23.30
2015,07,10,16,33,23.40
2015,07,10,16,34,23.50
2015,07,10,16,35,23.50
2015,07,10,16,36,23.40
2015,07,10,16,37,23.40
2015,07,10,16,38,23.50
2015,07,10,16,39,23.40
2015,07,10,16,40,23.40
2015,07,10,16,41,23.30
2015,07,10,16,42,23.20
2015,07,10,16,43,23.20
2015,07,10,16,44,23.10
2015,07,10,16,45,23.10
2015,07,10,16,46,23.10
2015,07,10,16,47,23.10
2015,07,10,16,48,23.10
2015,07,10,16,49,23.10
2015,07,10,16,50,23.00
2015,07,10,16,51,23.00
2015,07,10,16,52,22.90
2015,07,10,16,53,22.80
2015,07,10,16,54,22.80
2015,07,10,16,55,22.70
2015,07,10,16,56,22.70
2015,07,10,16,57,22.70
2015,07,10,16,58,22.70
2015,07,10,16,59,22.80
2015,07,10,17,00,22.80
2015,07,10,17,01,22.90
2015,07,10,17,02,22.90
2015,07,10,17,03,22.90
2015,07,10,17,04,22.80
2015,07,10,17,05,22.80
2015,07,10,17,06,22.70
2015,07,10,17,07,22.70
2015,07,10,17,08,22.70
2015,07,10,17,09,22.50
2015,07,10,17,10,22.40
2015,07,10,17,11,22.40
2015,07,10,17,12,22.30
2015,07,10,17,13,22.20
2015,07,10,17,14,22.20
2015,07,10,17,15,22.20
2015,07,10,17,16,22.30
2015,07,10,17,17,22.40
2015,07,10,17,18,22.50
2015,07,10,17,19,22.60